Date String (YYYY-MM-DD hh:mm:ss) UTC,Instrument flags,absolute air pressure of the measurement (hPa),sample flow rate (lpm),inlet stack bypass flow (lpm),air temperature of the measurement (°C),ambient temperature measured by the external sensor (°C),aerosol sample conditioner tube jacket temperature (°C),OPC LED temperature (°C),internal box temperature (°C),relative humidity of the measurement (%),span deviation,mass concentration of particles derived from Lorenz-Mie calculation of OPC scattering (μg/m³),mass concentration of particles derived from Lorenz-Mie calculation of OPC scattering (μg/m³),mass concentration of particles derived from Lorenz-Mie calculation of OPC scattering (μg/m³)
DateTimeUTC,F1_M11,P_M11,Q1_M11,Q2_M11,T1_M11,T2_M11,T3_M11,T4_M11,T5_M11,U1_M11,ZSPAN_M11,X2_M11,X0_M11,X1_M11
2023-06-20 12:00:00,SystemResetWarning,0827.4,5.00,000.00,030.1,028.5,000.0,038.7,031.6,14.6,0000.0,0004.01,0012.06,0003.30
2023-06-20 12:01:00,SystemResetWarning,0827.4,5.00,000.00,030.2,028.5,000.0,038.7,031.6,14.7,0000.0,0004.04,0011.52,0003.30
2023-06-20 12:02:00,SystemResetWarning,0827.4,5.00,000.00,030.2,028.6,000.0,038.7,031.6,14.8,0000.0,0004.00,0010.97,0003.30
2023-06-20 12:03:00,SystemResetWarning,0827.4,5.00,000.00,030.2,028.6,000.0,038.7,031.6,14.9,0000.0,0003.96,0010.75,0003.30
2023-06-20 12:04:00,SystemResetWarning,0827.4,5.00,000.00,030.2,028.6,000.0,038.7,031.7,14.9,0000.0,0003.96,0011.18,0003.29
2023-06-20 12:05:00,SystemResetWarning,0827.4,5.00,000.00,030.2,028.6,000.0,038.7,031.7,14.7,0000.0,0003.96,0011.59,0003.31
2023-06-20 12:06:00,SystemResetWarning,0827.4,4.99,000.00,030.2,028.6,000.0,038.7,031.7,14.1,0000.0,0004.03,0011.91,0003.31
2023-06-20 12:07:00,SystemResetWarning,0827.4,5.01,000.00,030.2,028.6,000.0,038.7,031.7,13.9,0000.0,0004.05,0013.05,0003.31
2023-06-20 12:08:00,SystemResetWarning,0827.4,5.00,000.00,030.2,028.7,000.0,038.8,031.7,14.0,0000.0,0004.06,0012.94,0003.32
2023-06-20 12:09:00,SystemResetWarning,0827.4,5.00,000.00,030.3,028.7,000.0,038.8,031.7,14.1,0000.0,0004.09,0012.98,0003.32
2023-06-20 12:10:00,SystemResetWarning,0827.4,5.01,000.00,030.3,028.7,000.0,038.8,031.7,14.1,0000.0,0004.12,0012.22,0003.33
2023-06-20 12:11:00,SystemResetWarning,0827.3,5.01,000.00,030.3,028.7,000.0,038.8,031.7,13.7,0000.0,0004.11,0011.50,0003.32
2023-06-20 12:12:00,SystemResetWarning,0827.4,5.00,000.00,030.3,028.7,000.0,038.8,031.8,14.0,0000.0,0004.08,0011.26,0003.32
2023-06-20 12:13:00,SystemResetWarning,0827.3,5.00,000.00,030.3,028.7,000.0,038.8,031.8,13.5,0000.0,0004.07,0011.28,0003.31
2023-06-20 12:14:00,SystemResetWarning,0827.3,5.00,000.00,030.3,028.7,000.0,038.8,031.8,13.6,0000.0,0004.08,0012.42,0003.30
2023-06-20 12:15:00,SystemResetWarning,0827.3,5.00,000.00,030.3,028.7,000.0,038.8,031.8,13.7,0000.0,0004.08,0012.76,0003.29
2023-06-20 12:16:00,SystemResetWarning,0827.3,5.01,000.00,030.3,028.7,000.0,038.9,031.8,13.7,0000.0,0004.10,0012.82,0003.28
2023-06-20 12:17:00,SystemResetWarning,0827.4,5.00,000.00,030.4,028.7,000.0,038.9,031.8,14.7,0000.0,0004.04,0012.38,0003.25
2023-06-20 12:18:00,SystemResetWarning,0827.4,5.00,000.00,030.4,028.7,000.0,038.9,031.8,14.2,0000.0,0003.99,0010.85,0003.23
2023-06-20 12:19:00,SystemResetWarning,0827.4,4.98,000.00,030.4,026.9,000.0,038.8,031.8,14.2,0000.0,0003.97,0011.19,0003.20
2023-06-20 12:20:00,SystemResetWarning,0827.4,5.02,000.00,030.3,025.4,000.0,038.8,031.8,14.6,0000.0,0003.97,0011.41,0003.20
2023-06-20 12:21:00,SystemResetWarning,0827.4,5.00,000.00,030.3,025.5,000.0,038.7,031.6,14.3,0000.0,0003.93,0011.30,0003.19
2023-06-20 12:22:00,SystemResetWarning,0827.4,5.00,000.00,030.2,025.9,000.0,038.7,031.4,13.6,0000.0,0003.97,0011.48,0003.17
2023-06-20 12:23:00,SystemResetWarning,0827.4,5.00,000.00,030.1,026.2,000.0,038.7,031.3,12.4,0000.0,0004.02,0011.57,0003.14
2023-06-20 12:24:00,SystemResetWarning,0827.4,5.02,000.00,030.1,026.6,000.0,038.7,031.3,11.6,0000.0,0004.04,0011.82,0003.10
2023-06-20 12:25:00,SystemResetWarning,0827.4,4.99,000.00,030.0,026.9,000.0,038.7,031.3,11.4,0000.0,0004.01,0011.74,0003.03
2023-06-20 12:26:00,SystemResetWarning,0827.4,4.99,000.00,030.0,027.2,000.0,038.7,031.3,11.5,0000.0,0004.01,0011.21,0002.97
2023-06-20 12:27:00,SystemResetWarning,0827.4,5.00,000.00,030.0,027.4,000.0,038.7,031.3,11.3,0000.0,0003.97,0011.13,0002.90
2023-06-20 12:28:00,SystemResetWarning,0827.4,5.00,000.00,030.0,027.6,000.0,038.6,031.3,11.1,0000.0,0003.98,0011.35,0002.82
2023-06-20 12:29:00,SystemResetWarning,0827.4,5.01,000.00,030.0,027.8,000.0,038.6,031.3,10.9,0000.0,0003.99,0011.72,0002.76
2023-06-20 12:30:00,SystemResetWarning,0827.4,5.00,000.00,030.0,027.9,000.0,038.6,031.4,10.9,0000.0,0004.03,0011.70,0002.72
2023-06-20 12:31:00,SystemResetWarning,0827.4,5.00,000.00,030.0,028.0,000.0,038.6,031.4,10.9,0000.0,0004.06,0011.85,0002.65
2023-06-20 12:32:00,SystemResetWarning,0827.6,4.99,000.00,030.0,028.1,000.0,038.6,031.4,10.8,0000.0,0004.04,0011.98,0002.55
2023-06-20 12:33:00,SystemResetWarning,0827.6,4.99,000.00,030.0,028.2,000.0,038.6,031.4,10.6,0000.0,0004.01,0011.94,0002.49
2023-06-20 12:34:00,SystemResetWarning,0827.7,5.00,000.00,030.0,028.2,000.0,038.6,031.4,10.7,0000.0,0003.92,0011.88,0002.45
2023-06-20 12:35:00,SystemResetWarning,0827.7,5.01,000.00,030.0,028.3,000.0,038.6,031.4,10.8,0000.0,0003.93,0012.24,0002.43
2023-06-20 12:36:00,SystemResetWarning,0827.7,5.00,000.00,030.0,028.3,000.0,038.6,031.4,10.6,0000.0,0003.97,0011.92,0002.46
2023-06-20 12:37:00,SystemResetWarning,0827.8,5.00,000.00,030.1,028.4,000.0,038.6,031.5,10.7,0000.0,0003.94,0011.47,0002.47
2023-06-20 12:38:00,SystemResetWarning,0827.6,5.00,000.00,030.1,028.4,000.0,038.6,031.5,10.7,0000.0,0003.94,0010.61,0002.45
2023-06-20 12:39:00,SystemResetWarning,0827.5,5.00,000.00,030.1,028.4,000.0,038.6,031.5,11.1,0000.0,0003.93,0010.66,0002.45
2023-06-20 12:40:00,SystemResetWarning,0827.5,5.00,000.00,030.1,028.5,000.0,038.6,031.5,11.3,0000.0,0003.89,0010.42,0002.44
2023-06-20 12:41:00,SystemResetWarning,0827.5,5.00,000.00,030.1,028.5,000.0,038.7,031.5,11.2,0000.0,0003.84,0011.09,0002.42
2023-06-20 12:42:00,SystemResetWarning,0827.5,5.00,000.00,030.1,028.5,000.0,038.7,031.6,10.0,0000.0,0003.81,0012.81,0002.42
2023-06-20 12:43:00,SystemResetWarning,0827.5,5.00,000.00,030.1,028.5,000.0,038.7,031.6,10.1,0000.0,0003.78,0013.01,0002.42
2023-06-20 12:44:00,SystemResetWarning,0827.5,5.01,000.00,030.2,028.6,000.0,038.7,031.6,10.4,0000.0,0003.79,0013.20,0002.41
2023-06-20 12:45:00,SystemResetWarning,0827.5,5.00,000.00,030.2,028.6,000.0,038.7,031.6,10.4,0000.0,0003.82,0013.25,0002.42
2023-06-20 12:46:00,SystemResetWarning,0827.5,5.00,000.00,030.2,028.6,000.0,038.7,031.6,10.8,0000.0,0003.79,0013.02,0002.39
2023-06-20 12:47:00,SystemResetWarning,0827.5,5.00,000.00,030.2,028.6,000.0,038.7,031.7,11.4,0000.0,0003.72,0013.12,0002.36
2023-06-20 12:48:00,SystemResetWarning,0827.5,5.00,000.00,030.2,028.7,000.0,038.7,031.7,12.1,0000.0,0003.72,0013.95,0002.33
2023-06-20 12:49:00,SystemResetWarning,0827.6,5.00,000.00,030.2,028.7,000.0,038.7,031.7,12.8,0000.0,0003.78,0015.29,0002.34
2023-06-20 12:50:00,SystemResetWarning,0827.6,4.99,000.00,030.2,028.7,000.0,038.8,031.7,13.3,0000.0,0003.79,0016.02,0002.34
2023-06-20 12:51:00,SystemResetWarning,0827.6,5.00,000.00,030.3,028.7,000.0,038.8,031.8,12.6,0000.0,0003.82,0016.43,0002.35
2023-06-20 12:52:00,SystemResetWarning,0827.6,5.00,000.00,030.3,028.7,000.0,038.8,031.7,12.3,0000.0,0003.83,0015.70,0002.36
2023-06-20 12:53:00,SystemResetWarning,0827.7,4.99,000.00,030.3,028.5,000.0,038.8,031.8,12.4,0000.0,0003.85,0013.57,0002.38
2023-06-20 12:54:00,SystemResetWarning,0827.7,5.00,000.00,030.3,026.3,000.0,038.7,031.8,13.6,0000.0,0003.90,0013.55,0002.39
2023-06-20 12:55:00,SystemResetWarning,0827.7,5.00,000.00,030.2,024.7,000.0,038.7,031.6,12.5,0000.0,0003.98,0015.16,0002.41
2023-06-20 12:56:00,SystemResetWarning,0827.7,5.01,000.00,030.2,024.9,000.0,038.6,031.4,13.0,0000.0,0003.94,0015.81,0002.41
2023-06-20 12:57:00,SystemResetWarning,0827.7,5.01,000.00,030.0,025.3,000.0,038.6,031.2,14.3,0000.0,0003.95,0015.75,0002.45
2023-06-20 12:58:00,SystemResetWarning,0827.7,5.00,000.00,030.0,025.8,000.0,038.6,031.2,14.5,0000.0,0004.01,0017.05,0002.46
2023-06-20 12:59:00,SystemResetWarning,0827.7,4.98,000.00,029.9,026.2,000.0,038.6,031.1,15.5,0000.0,0004.08,0017.92,0002.47
